Time,TemperatureF,DewpointF,PressureIn,WindDirection,WindDirectionDegrees,WindSpeedMPH,WindSpeedGustMPH,Humidity,HourlyPrecipIn,Conditions,Clouds,dailyrainin,SolarRadiationWatts/m^2,SoftwareType,DateUTC
2013-07-03 00:40:00,77.0,42.0,30.03,SE,130,2.0,4.0,29,-99.99,,,-99.99,0.000000,,2013-07-03 07:40:00,
2013-07-03 01:24:00,77.0,42.0,30.03,SE,130,2.0,4.0,29,-99.99,,,-99.99,0.000000,,2013-07-03 08:24:00,
2013-07-03 01:35:00,77.0,42.0,30.03,SE,130,2.0,4.0,29,-99.99,,,-99.99,0.000000,,2013-07-03 08:35:00,
2013-07-03 08:40:00,85.0,44.0,30.02,SE,146,1.0,3.0,24,-99.99,,,-99.99,518.000000,,2013-07-03 15:40:00,
2013-07-03 09:23:00,85.0,44.0,30.02,SE,146,1.0,3.0,24,-99.99,,,-99.99,518.000000,,2013-07-03 16:23:00,
2013-07-03 09:40:00,84.0,47.0,30.01,WSW,258,1.0,3.0,27,-99.99,,,-99.99,672.000000,,2013-07-03 16:40:00,
2013-07-03 10:24:00,84.0,47.0,30.01,WSW,258,1.0,3.0,27,-99.99,,,-99.99,672.000000,,2013-07-03 17:24:00,
2013-07-03 10:37:00,84.0,47.0,30.01,WSW,258,1.0,3.0,27,-99.99,,,-99.99,672.000000,,2013-07-03 17:37:00,
2013-07-03 10:40:00,85.0,47.0,30.02,SW,228,3.0,6.0,27,-99.99,,,-99.99,858.000000,,2013-07-03 17:40:00,
2013-07-03 11:23:00,85.0,47.0,30.02,SW,228,3.0,6.0,27,-99.99,,,-99.99,858.000000,,2013-07-03 18:23:00,
2013-07-03 11:35:00,85.0,47.0,30.02,SW,228,3.0,6.0,27,-99.99,,,-99.99,858.000000,,2013-07-03 18:35:00,
2013-07-03 11:40:00,88.0,47.0,30.01,SSW,209,3.0,7.0,24,-99.99,,,-99.99,1023.000000,,2013-07-03 18:40:00,
2013-07-03 12:34:00,88.0,47.0,30.01,SSW,209,3.0,7.0,24,-99.99,,,-99.99,1023.000000,,2013-07-03 19:34:00,
2013-07-03 12:40:00,89.0,51.0,30.01,West,259,2.0,5.0,27,-99.99,,,-99.99,1037.000000,,2013-07-03 19:40:00,
2013-07-03 13:23:00,89.0,51.0,30.01,West,259,2.0,5.0,27,-99.99,,,-99.99,1037.000000,,2013-07-03 20:23:00,
2013-07-03 13:36:00,89.0,51.0,30.01,West,259,2.0,5.0,27,-99.99,,,-99.99,1037.000000,,2013-07-03 20:36:00,
2013-07-03 14:23:00,90.0,48.0,30.00,West,277,2.0,5.0,24,-99.99,,,-99.99,1042.000000,,2013-07-03 21:23:00,
2013-07-03 14:40:00,89.0,49.0,29.99,WNW,288,3.0,6.0,25,-99.99,,,-99.99,959.000000,,2013-07-03 21:40:00,
2013-07-03 15:36:00,89.0,49.0,29.99,WNW,288,3.0,6.0,25,-99.99,,,-99.99,959.000000,,2013-07-03 22:36:00,
2013-07-03 15:40:00,88.0,50.0,29.97,West,280,4.0,5.0,28,-99.99,,,-99.99,846.000000,,2013-07-03 22:40:00,
2013-07-03 16:36:00,88.0,50.0,29.97,West,280,4.0,5.0,28,-99.99,,,-99.99,846.000000,,2013-07-03 23:36:00,
2013-07-03 16:40:00,89.0,50.0,29.95,West,266,2.0,4.0,27,-99.99,,,-99.99,687.000000,,2013-07-03 23:40:00,
2013-07-03 17:35:00,89.0,50.0,29.95,West,266,2.0,4.0,27,-99.99,,,-99.99,687.000000,,2013-07-04 00:35:00,
2013-07-03 17:40:00,86.0,49.0,29.95,WNW,294,2.0,3.0,28,-99.99,,,-99.99,497.000000,,2013-07-04 00:40:00,
2013-07-03 18:23:00,86.0,49.0,29.95,WNW,294,2.0,3.0,28,-99.99,,,-99.99,497.000000,,2013-07-04 01:23:00,
2013-07-03 18:34:00,86.0,49.0,29.95,WNW,294,2.0,3.0,28,-99.99,,,-99.99,497.000000,,2013-07-04 01:34:00,
2013-07-03 18:40:00,87.0,47.0,29.94,WNW,299,1.0,3.0,25,-99.99,,,-99.99,251.000000,,2013-07-04 01:40:00,
2013-07-03 19:22:00,87.0,47.0,29.94,WNW,299,1.0,3.0,25,-99.99,,,-99.99,251.000000,,2013-07-04 02:22:00,
2013-07-03 19:37:00,87.0,47.0,29.94,WNW,299,1.0,3.0,25,-99.99,,,-99.99,251.000000,,2013-07-04 02:37:00,
2013-07-03 19:40:00,81.0,47.0,29.93,North,357,3.0,5.0,30,-99.99,,,-99.99,72.000000,,2013-07-04 02:40:00,
2013-07-03 20:34:00,81.0,47.0,29.93,North,357,3.0,5.0,30,-99.99,,,-99.99,72.000000,,2013-07-04 03:34:00,
2013-07-03 20:40:00,81.0,43.0,29.93,NNW,333,6.0,8.0,27,-99.99,,,-99.99,2.000000,,2013-07-04 03:40:00,
2013-07-03 21:22:00,81.0,43.0,29.93,NNW,333,6.0,8.0,27,-99.99,,,-99.99,2.000000,,2013-07-04 04:22:00,
2013-07-03 21:33:00,81.0,43.0,29.93,NNW,333,6.0,8.0,27,-99.99,,,-99.99,2.000000,,2013-07-04 04:33:00,
2013-07-03 22:40:00,81.0,44.0,29.94,NE,50,5.0,6.0,27,-99.99,,,-99.99,0.000000,,2013-07-04 05:40:00,
2013-07-03 23:22:00,81.0,44.0,29.94,NE,50,5.0,6.0,27,-99.99,,,-99.99,0.000000,,2013-07-04 06:22:00,
2013-07-03 23:34:00,81.0,44.0,29.94,NE,50,5.0,6.0,27,-99.99,,,-99.99,0.000000,,2013-07-04 06:34:00,